This is the latest recevied weather packets stored in our database for station/object K5GTX. If no packets are shown the sender has not sent any weather packets the latest 10 day(s).
| Time | Temp. | Humidity | Pressure | Rain* | Wind** | Luminosity | Snow |
|---|---|---|---|---|---|---|---|
| 1777897463 | 17.22° C | 99% | 1019.7 hPa | 0 mm | - | 35 W/m² | - |
| 1777897159 | 17.22° C | 99% | 1019.7 hPa | 0 mm | - | 31 W/m² | - |
| 1777896855 | 17.22° C | 99% | 1019.8 hPa | 0 mm | - | 29 W/m² | - |
| 1777896553 | 17.22° C | 99% | 1019.5 hPa | 0 mm | - | 16 W/m² | - |
| 1777896250 | 17.22° C | 99% | 1019.5 hPa | 0 mm | - | 23 W/m² | - |
| 1777895948 | 17.22° C | 99% | 1019.4 hPa | 0 mm | - | 17 W/m² | - |
| 1777895645 | 17.22° C | 99% | 1019.3 hPa | 0 mm | - | 13 W/m² | - |
| 1777895343 | 16.67° C | 99% | 1019.4 hPa | 0 mm | - | 9 W/m² | - |
| 1777895041 | 16.67° C | 99% | 1019.3 hPa | 0 mm | - | 4 W/m² | - |
| 1777894737 | 16.67° C | 99% | 1019.5 hPa | 0 mm | - | 1 W/m² | - |
| 1777894434 | 16.67° C | 99% | 1019.2 hPa | 0 mm | - | 0 W/m² | - |
| 1777894132 | 16.67° C | 99% | 1019.3 hPa | 0 mm | - | 0 W/m² | - |
| 1777893828 | 16.67° C | 99% | 1019.3 hPa | 0 mm | - | 0 W/m² | - |
| 1777893525 | 16.67° C | 99% | 1019.4 hPa | 0 mm | - | 0 W/m² | - |
| 1777893221 | 16.67° C | 99% | 1019.2 hPa | 0 mm | - | 0 W/m² | - |
| 1777892918 | 16.67° C | 99% | 1019.2 hPa | 0 mm | - | 0 W/m² | - |
| 1777892614 | 16.67° C | 99% | 1019.3 hPa | 0 mm | - | 0 W/m² | - |
| 1777892310 | 16.67° C | 99% | 1019.3 hPa | 0 mm | - | 0 W/m² | - |
| 1777892006 | 16.67° C | 99% | 1019.1 hPa | 0 mm | - | 0 W/m² | - |
| 1777891704 | 16.67° C | 99% | 1019.2 hPa | 0 mm | - | 0 W/m² | - |
| 1777891400 | 16.67° C | 99% | 1019.3 hPa | 0 mm | - | 0 W/m² | - |
| 1777891096 | 16.67° C | 99% | 1019.3 hPa | 0 mm | - | 0 W/m² | - |
| 1777890790 | 16.67° C | 99% | 1019.2 hPa | 0 mm | - | 0 W/m² | - |
| 1777890487 | 16.67° C | 99% | 1019.5 hPa | 0 mm | - | 0 W/m² | - |
| 1777890182 | 16.67° C | 99% | 1019.3 hPa | 0 mm | - | 0 W/m² | - |
* Rain latest hour (hover to see other rain measurements)
** Current wind speed in m/s (hover to see current wind gust speed)